Flag for Germany Weather past 2 weeks in Garmisch-Partenkirchen, Bavaria, Germany

Now
46 °F

Partly cloudy.


Feels Like: 44 °F
Forecast: 36 / 67 °F
Wind: 5 mph from West

Location: Innsbruck-Flughafen

Current Time: May 27, 2015 at 6:04:48 AM

Latest Report: May 27, 2015 at 5:20 AM


Visibility: N/A

Pressure: 30.15 "Hg

Humidity: 93%

Dew point: 45 °F

Location of Garmisch-PartenkirchenLocation

Historic Weather in Garmisch-Partenkirchen — Graph

°F

Garmisch-Partenkirchen temperature yesterday

Maximum temperature yesterday: 57 °F (at 3:20 PM)
Minimum temperature yesterday: 48 °F (at 11:50 PM)
Average temperature yesterday: 53 °F

Past Weeks' High & Low Weather Summary

 TemperatureHumidityPressure
High86 °F (May 12, 4:50 PM)100% (May 14, 4:50 AM)30.30 "Hg (May 14, 4:50 AM)
Low39 °F (May 20, 4:50 PM)18% (May 12, 4:50 PM)29.68 "Hg (May 18, 6:50 PM)
Average55 °F80%30.04 "Hg
* Reported May 12 4:20 AM — May 27 4:50 AM, Garmisch-Partenkirchen, Weather by CustomWeather, © 2015

Note: Actual official high and low records may vary slightly from our data, if they occured in-between our weather recording intervals... More about our weather records

Advertising

Garmisch-Partenkirchen weather history for previous 24 hours

 ConditionsComfort  
Time TempWeatherWind HumidityBarometerVisibility
4:50 AM
Wed, May 27
46 °FSprinkles. Partly cloudy.2 mph93%30.15 "HgN/A
4:20 AM46 °FSprinkles. Passing clouds.2 mph93%30.15 "HgN/A
3:50 AM46 °FSprinkles. Partly cloudy.5 mph93%30.15 "HgN/A
3:20 AM46 °FLight rain. Partly cloudy.1 mph100%30.15 "HgN/A
2:50 AM46 °FSprinkles. Passing clouds.1 mph93%30.15 "HgN/A
2:20 AM48 °FPartly cloudy.2 mph87%30.12 "HgN/A
1:50 AM48 °FPassing clouds.2 mph94%30.12 "HgN/A
1:20 AM48 °FPassing clouds.1 mph87%30.12 "HgN/A
12:50 AM48 °FSprinkles. Partly cloudy.2 mph94%30.12 "HgN/A
12:20 AM48 °FSprinkles. Partly cloudy.2 mph94%30.12 "HgN/A
11:50 PM
Tue, May 26
48 °FLight rain. Partly cloudy.2 mph100%30.12 "HgN/A
11:20 PM50 °FLight rain. Passing clouds.5 mph94%30.12 "HgN/A
10:50 PM50 °FLight rain. Partly cloudy.2 mph94%30.12 "HgN/A
10:20 PM50 °FLight rain. Partly cloudy.2 mph94%30.12 "HgN/A
9:50 PM50 °FBroken clouds.1 mph88%30.12 "HgN/A
9:20 PM50 °FBroken clouds.2 mph88%30.09 "HgN/A
8:50 PM52 °FSprinkles. Broken clouds.2 mph82%30.09 "HgN/A
8:20 PM52 °FSprinkles. Broken clouds.2 mph82%30.07 "HgN/A
7:50 PM52 °FBroken clouds.5 mph77%30.07 "HgN/A
7:20 PM54 °FSprinkles. Broken clouds.3 mph72%30.07 "HgN/A
6:50 PM54 °FSprinkles. Broken clouds.5 mph72%30.07 "HgN/A
6:20 PM54 °FLight rain. Broken clouds.9 mph72%30.04 "HgN/A
5:50 PM55 °FSprinkles. Broken clouds.2 mph72%30.04 "HgN/A
5:20 PM55 °FBroken clouds.5 mph67%30.01 "HgN/A
4:50 PM55 °FBroken clouds.7 mph67%30.01 "HgN/A
4:20 PM57 °FBroken clouds.5 mph67%30.01 "HgN/A
3:50 PM57 °FSprinkles. Broken clouds.3 mph67%30.01 "HgN/A
3:20 PM57 °FBroken clouds.7 mph67%30.01 "HgN/A
2:50 PM55 °FBroken clouds.7 mph77%30.01 "HgN/A
2:20 PM55 °FSprinkles. Broken clouds.7 mph77%30.01 "HgN/A
1:50 PM55 °FSprinkles. Broken clouds.9 mph77%30.01 "HgN/A
1:20 PM55 °FSprinkles. Broken clouds.8 mph82%30.01 "HgN/A
12:50 PM55 °FLight rain. Broken clouds.9 mph82%29.98 "HgN/A
12:20 PM55 °FSprinkles. Broken clouds.8 mph82%29.98 "HgN/A
11:50 AM55 °FSprinkles. Broken clouds.9 mph88%29.98 "HgN/A
11:20 AM54 °FLight rain. Broken clouds.8 mph88%29.98 "HgN/A
10:50 AM55 °FLight rain. Broken clouds.7 mph88%29.95 "HgN/A
10:20 AM54 °FLight rain. Broken clouds.2 mph88%29.95 "HgN/A
9:50 AM54 °FLight rain. Broken clouds.3 mph88%29.95 "HgN/A
9:20 AM54 °FLight rain. Broken clouds.8 mph88%29.95 "HgN/A
8:50 AM54 °FLight rain. Broken clouds.5 mph88%29.95 "HgN/A
8:20 AM52 °FLight rain. Broken clouds.2 mph100%29.95 "HgN/A
7:50 AM52 °FLight rain. Broken clouds.3 mph94%29.95 "HgN/A
7:20 AM52 °FLight rain. Broken clouds.1 mph94%29.92 "HgN/A
6:50 AM52 °FLight rain. Broken clouds.1 mph94%29.92 "HgN/A
6:20 AM52 °FLight rain. Partly cloudy.2 mph94%29.92 "HgN/A
Weather by CustomWeather, © 2015

See weather overviewHow to use our weather pages